Regional Weather Roundup
Issued by NWS

Home | Current Version | Previous Version | Graphics & Text | Print | Product List | Glossary Off
Versions: 1 2 3 4 5 6 7 8 9 10 11 12 13 14 15 16 17 18 19 20 21 22 23 24 25 26 27 28 29 30 31 32 33 34 35 36 37 38 39 40 41 42 43 44 45 46 47 48 49 50

140
ASUS43 KMPX 212210
RWRMN
WEATHER ROUNDUP FOR MINNESOTA
NATIONAL WEATHER SERVICE TWIN CITIES/CHANHASSEN MN
500 PM CDT THU SEP 21 2017


NOTE: "FAIR" INDICATES FEW OR NO CLOUDS BELOW 12,000 FEET WITH NO
SIGNIFICANT WEATHER AND/OR OBSTRUCTIONS TO VISIBILITY. N/A MEANS
CURRENT SKY AND/OR WEATHER CONDITIONS ARE NOT AVAILABLE.

MNZ060>063-068>070-212300-
   Twin Cities Metro

CITY           SKY/WX    TMP DP  RH WIND       PRES   REMARKS
TWIN CITIES    MOSUNNY   83  69  62 SE16      29.80F
ST PAUL        SUNNY     81  69  67 SE12G24   29.81F
CRYSTAL        SUNNY     81  65  58 SE13G21   29.79F
BLAINE         MOSUNNY   82  68  61 SE12G22   29.81F
LAKEVILLE      SUNNY     82  66  57 SE9G17    29.81S
EDEN PRAIRIE   SUNNY     83  69  62 SE13      29.79F
SOUTH ST PAUL  SUNNY     83  66  57 SE9       29.81F
LAKE ELMO      FAIR      81  68  65 SE14      29.84F
$$
MNZ001>005-007-008-013>017-022>024-027-028-212300-
   Northwest Minnesota

CITY           SKY/WX    TMP DP  RH WIND       PRES   REMARKS
BEMIDJI        MOSUNNY   73  49  43 SE16      29.79F
HALLOCK        CLOUDY    81  41  24 S15G26    29.67F
ROSEAU         CLOUDY    77  48  36 SE18      29.74F
WARROAD        MOSUNNY   75  48  38 SE14G20   29.76F
THIEF RVR FALL SUNNY     78  46  32 SE17      29.73F
CROOKSTON      SUNNY     79  46  31 S14       29.70F
FOSSTON        PTSUNNY   73  48  40 SE12      29.75S
DETROIT LAKES  MOSUNNY   75  52  43 SE13      29.75F
MOORHEAD       MOSUNNY   81  55  41 S15G24    29.69S
PARK RAPIDS    PTSUNNY   75  53  46 SE10      29.78F
MAHNOMEN       MOCLDY    76  50  40 SE13G18   29.73F
$$
MNZ006-009>011-018-025>026-212300-
   North Central Minnesota

CITY           SKY/WX    TMP DP  RH WIND       PRES   REMARKS
BAUDETTE       SUNNY     75  48  38 SE16G22   29.79F
FLAG ISLAND    SUNNY     70  48  46 SE12      29.76F
INTL FALLS     SUNNY     72  49  44 SE14G22   29.84F
WASKISH        SUNNY     73  50  43 SE13G18   29.78F
BIG FORK       SUNNY     73  48  40 SE8       29.83F
LONGVILLE      SUNNY     75  48  38 SE9G18    29.82R
GRAND RAPIDS   SUNNY     73  53  49 SE10G17   29.84F
CRANE LAKE     SUNNY     72  50  46 SE5       29.90F
ORR            SUNNY     72  43  35 SE8G16    29.85F
COOK           SUNNY     73  45  35 E5        29.88F
WALKER         FAIR      72  51  47 SE6       29.80F
$$
MNZ012-019>021-037-212300-
   Northeast Minnesota

CITY           SKY/WX    TMP DP  RH WIND       PRES   REMARKS
DULUTH         MOSUNNY   67  58  72 E17G23    29.90F
ELY            SUNNY     70  48  46 SE13      29.92F
HIBBING        SUNNY     71  51  49 SE15      29.87F
EVELETH        SUNNY     73  40  31 SE13      29.91S
DULUTH HARBOR  MOSUNNY   63  59  88 NE22      29.91F
TWO HARBORS    SUNNY     68  57  68 E15G23    29.92F
SILVER BAY     SUNNY     64  55  72 NE13      29.94F
GRAND MARAIS     N/A     63  54  72 NE13G20   29.98F
G MARAIS ARPRT SUNNY     63  45  51 E9        30.01F
$$
MNZ029>031-032-039>041-046>048-054>057-064-212300-
   West Central Minnesota

CITY           SKY/WX    TMP DP  RH WIND       PRES   REMARKS
FERGUS FALLS   PTSUNNY   79  63  57 SE16G22   29.70F
WHEATON        MOSUNNY   81  64  57 SE15      29.68F
MORRIS         MOSUNNY   81  66  61 SE18      29.70F
ALEXANDRIA     PTSUNNY   78  65  63 SE17      29.77F
ELBOW LAKE     FAIR      78  65  64 E16       29.71F HAZE
WADENA         MOSUNNY   75  57  53 SE14      29.76F
GLENWOOD       SUNNY     79  68  69 SE14G22   29.77S
APPLETON       SUNNY     84  66  54 SE15G22   29.68F
BENSON         SUNNY     82  68  61 S15G23    29.72F
ORTONVILLE     MOSUNNY   82  68  61 NE14G21   29.67F
MADISON        SUNNY     86  70  58 SE15      29.68F HX  90
WILLMAR        FAIR      81  70  69 SE15      29.75F
$$
MNZ033>034-036-042>043-049>051-058-059-212300-
   Central Minnesota

CITY           SKY/WX    TMP DP  RH WIND       PRES   REMARKS
ST CLOUD       SUNNY     80  67  64 SE13G23   29.79F
SAUK CENTRE    MOCLDY    76  66  70 SE10G17   29.78S
PAYNESVILLE    MOSUNNY   80  68  67 SE10G21   29.78S
AITKIN         SUNNY     75  55  50 E8        29.81F
PINE RIVER     SUNNY     72  54  53 SE13      29.84F
BRAINERD       SUNNY     75  57  53 SE12G21   29.80F
STAPLES        SUNNY     77  57  50 SE10G16   29.78F
LITTLE FALLS   SUNNY     77  54  44 SE6G16    29.79F
LITCHFIELD     SUNNY     82  70  65 SE14G22   29.78F
BUFFALO        SUNNY     80  66  62 SE9G23    29.81S
MAPLE LAKE     SUNNY     81  70  69 SE9       29.81S
HUTCHINSON     MOSUNNY   82  71  68 SE13G18   29.79F
$$
MNZ037-044-045-052-053-212300-
   East Central Minnesota

CITY           SKY/WX    TMP DP  RH WIND       PRES   REMARKS
PRINCETON      SUNNY     82  66  57 SE12G18   29.80F
MORA           SUNNY     77  61  57 S10       29.84F
CAMBRIDGE      SUNNY     82  66  57 SE8       29.81F
RUSH CITY      MOSUNNY   80  66  62 SE10G16   29.83F
MOOSE LAKE     MOSUNNY   70  59  68 NE6       29.85F
HINCKLEY       FAIR      79  63  57 SE9       29.84F
CLOQUET        SUNNY     66  55  68 E14       29.89F
MCGREGOR       SUNNY     75  59  57 E12G18    29.85F
$$
MNZ071>073-080-081-089-090-097-098-212300-
   Southwest Minnesota

CITY           SKY/WX    TMP DP  RH WIND       PRES   REMARKS
MONTEVIDEO     MOSUNNY   86  70  58 S12G18    29.70F HX  90
GRANITE FALLS  MOSUNNY   85  71  63 SE15G23   29.71F HX  90
CANBY          SUNNY     84  71  63 E16       29.69F
MARSHALL       MOSUNNY   85  73  67 SE16      29.69F HX  91
REDWOOD FALLS  PTSUNNY   85  70  60 S21G26    29.73F
OLIVIA         MOSUNNY   82  70  65 SE18G24   29.73F
PIPESTONE      SUNNY     84  70  61 S21G28    29.71F
WINDOM         SUNNY     84  70  61 S15G23    29.75F
WORTHINGTON    CLOUDY    82  71  69 S17G28    29.75F
JACKSON        PTSUNNY   84  68  58 S17G24    29.78F
TRACY          MOSUNNY   85  72  65 S17G29    29.72F HX  91
SLAYTON        MOSUNNY   85  69  58 S18G25    29.74F
$$
MNZ065>067-074>077-082>085-091>093-212300-
   South Central Minnesota

CITY           SKY/WX    TMP DP  RH WIND       PRES   REMARKS
MANKATO        MOSUNNY   85  72  65 SE13G20   29.77F HX  91
NEW ULM        PTSUNNY   84  70  61 S13G18    29.76F
ST JAMES       MOSUNNY   86  70  58 SE18G24   29.77S HX  90
FAIRMONT       MOSUNNY   87  70  56 S18G31    29.77F HX  92
GLENCOE        MOSUNNY   84  72  67 SE10      29.78F
FARIBAULT      MOSUNNY   84  70  61 SE12G17   29.82S
OWATONNA       SUNNY     86  72  62 S9        29.82S HX  92
WASECA         MOSUNNY   82  68  61 SE13      29.81F
ALBERT LEA     SUNNY     90  68  48 S13       29.81F HX  93
$$
MNZ078>079-086>088-094>096-212300-
   Southeast Minnesota

CITY           SKY/WX    TMP DP  RH WIND       PRES   REMARKS
ROCHESTER      SUNNY     85  67  54 S12G21    29.86F
RED WING       SUNNY     84  64  51 SE12      29.82F
STANTON        SUNNY     85  68  55 SE7       29.81S
DODGE CENTER   SUNNY     86  66  51 S12G21    29.85F
WINONA         SUNNY     82  64  54 E13       29.86F
AUSTIN         SUNNY     86  64  48 S12G18    29.83F
PRESTON        SUNNY     85  62  46 S12       29.88F
$$
ABBREVIATIONS USED IN REMARKS
   TC - TEMPERATURES IN CELSIUS
  WCI - WIND CHILL INDEX
   HX - HEAT INDEX
  VSB - VISIBILITY
$$




USA.gov is the U.S. government's official web portal to all federal, state and local government web resources and services.